Hourly Weather Bolshoe Kashino

Today, 1 August, Sunday

Time Temperature Precipitation Wind Pressure Humidity
00:00 +15°C° 0 mm 2 mps 734 mmHg 85%
01:00 +15°C° 0 mm 2 mps 734 mmHg 85%
02:00 +15°C° 0 mm 1 mps 734 mmHg 86%
03:00 +15°C° 0 mm 2 mps 734 mmHg 84%
04:00 +15°C° 0 mm 2 mps 734 mmHg 83%
05:00 +16°C° 0 mm 2 mps 734 mmHg 82%
06:00 +17°C° 0 mm 2 mps 734 mmHg 76%
07:00 +19°C° 0 mm 3 mps 734 mmHg 71%
08:00 +20°C° 0 mm 4 mps 734 mmHg 65%
09:00 +20°C° 0.1 mm 4 mps 734 mmHg 69%
10:00 +21°C° 0.1 mm 4 mps 734 mmHg 73%
11:00 +21°C° 0.1 mm 5 mps 734 mmHg 77%
12:00 +22°C° 0.2 mm 5 mps 733 mmHg 74%
13:00 +23°C° 0.2 mm 4 mps 733 mmHg 70%
14:00 +25°C° 0.2 mm 4 mps 733 mmHg 67%
15:00 +25°C° 0.2 mm 4 mps 733 mmHg 67%
16:00 +25°C° 0.2 mm 4 mps 733 mmHg 68%
17:00 +25°C° 0.2 mm 3 mps 733 mmHg 68%
18:00 +22°C° 0 mm 3 mps 733 mmHg 69%
19:00 +21°C° 0 mm 3 mps 733 mmHg 71%
20:00 +19°C° 0 mm 2 mps 733 mmHg 72%
21:00 +18°C° 0 mm 2 mps 733 mmHg 73%
22:00 +17°C° 0 mm 2 mps 733 mmHg 73%
23:00 +16°C° 0 mm 1 mps 733 mmHg 74%

Tomorrow, 2 August, Monday

Time Temperature Precipitation Wind Pressure Humidity
00:00 +16°C° 0 mm 1 mps 734 mmHg 74%
01:00 +16°C° 0 mm 1 mps 734 mmHg 74%
02:00 +16°C° 0 mm 1 mps 734 mmHg 73%
03:00 +16°C° 0 mm 1 mps 733 mmHg 74%
04:00 +16°C° 0 mm 1 mps 733 mmHg 75%
05:00 +16°C° 0 mm 1 mps 733 mmHg 76%
06:00 +18°C° 0 mm 2 mps 733 mmHg 70%
07:00 +20°C° 0 mm 2 mps 733 mmHg 63%
08:00 +23°C° 0 mm 2 mps 733 mmHg 57%
09:00 +21°C° 0.7 mm 2 mps 732 mmHg 68%
10:00 +21°C° 0.7 mm 2 mps 732 mmHg 79%
11:00 +21°C° 0.7 mm 1 mps 732 mmHg 90%
12:00 +20°C° 2 mm 2 mps 731 mmHg 92%
13:00 +20°C° 2 mm 3 mps 730 mmHg 93%
14:00 +20°C° 2 mm 4 mps 730 mmHg 95%
15:00 +20°C° 0.9 mm 4 mps 729 mmHg 94%
16:00 +21°C° 0.9 mm 4 mps 729 mmHg 94%
17:00 +21°C° 0.9 mm 4 mps 728 mmHg 93%
18:00 +20°C° 0.6 mm 3 mps 728 mmHg 94%
19:00 +19°C° 0.6 mm 3 mps 728 mmHg 95%
20:00 +18°C° 0.6 mm 3 mps 728 mmHg 97%
21:00 +17°C° 0.2 mm 3 mps 728 mmHg 97%
22:00 +16°C° 0.2 mm 2 mps 729 mmHg 97%
23:00 +16°C° 0.2 mm 2 mps 729 mmHg 98%

Day after tomorrow, 3 August, Tuesday

Time Temperature Precipitation Wind Pressure Humidity
00:00 +16°C° 0.1 mm 2 mps 729 mmHg 98%
01:00 +16°C° 0.1 mm 2 mps 729 mmHg 98%
02:00 +16°C° 0.1 mm 3 mps 730 mmHg 98%
03:00 +14°C° 0 mm 3 mps 730 mmHg 98%
04:00 +14°C° 0 mm 3 mps 730 mmHg 97%
05:00 +14°C° 0 mm 3 mps 731 mmHg 97%
06:00 +14°C° 0 mm 3 mps 731 mmHg 94%
07:00 +16°C° 0 mm 3 mps 732 mmHg 91%
08:00 +17°C° 0 mm 3 mps 732 mmHg 88%
09:00 +17°C° 0.3 mm 3 mps 732 mmHg 84%
10:00 +18°C° 0.3 mm 3 mps 733 mmHg 79%
11:00 +18°C° 0.3 mm 3 mps 733 mmHg 75%
12:00 +19°C° 0 mm 4 mps 733 mmHg 66%
13:00 +21°C° 0 mm 4 mps 733 mmHg 57%
14:00 +22°C° 0 mm 4 mps 734 mmHg 48%
15:00 +21°C° 0 mm 4 mps 734 mmHg 52%
16:00 +20°C° 0 mm 4 mps 734 mmHg 55%
17:00 +20°C° 0 mm 3 mps 734 mmHg 59%
18:00 +18°C° 0 mm 3 mps 735 mmHg 65%
19:00 +17°C° 0 mm 2 mps 735 mmHg 70%
20:00 +16°C° 0 mm 2 mps 735 mmHg 76%
21:00 +15°C° 0 mm 2 mps 736 mmHg 82%
22:00 +14°C° 0 mm 2 mps 736 mmHg 88%
23:00 +13°C° 0 mm 1 mps 736 mmHg 94%

4 August, Wednesday

Time Temperature Precipitation Wind Pressure Humidity
00:00 +13°C° 0 mm 1 mps 736 mmHg 95%
01:00 +12°C° 0 mm 1 mps 737 mmHg 96%
02:00 +12°C° 0 mm 1 mps 737 mmHg 96%
03:00 +12°C° 0 mm 1 mps 737 mmHg 94%
04:00 +12°C° 0 mm 1 mps 738 mmHg 91%
05:00 +12°C° 0 mm 0 mps 738 mmHg 89%
06:00 +14°C° 0 mm 0 mps 738 mmHg 78%
07:00 +16°C° 0 mm 0 mps 739 mmHg 67%
08:00 +18°C° 0 mm 0 mps 739 mmHg 56%
09:00 +19°C° 0 mm 0 mps 739 mmHg 51%
10:00 +22°C° 0 mm 1 mps 739 mmHg 46%
11:00 +23°C° 0 mm 1 mps 740 mmHg 40%
12:00 +23°C° 0 mm 1 mps 740 mmHg 39%
13:00 +24°C° 0 mm 1 mps 740 mmHg 38%
14:00 +24°C° 0 mm 1 mps 740 mmHg 37%
15:00 +23°C° 0 mm 1 mps 740 mmHg 41%
16:00 +23°C° 0 mm 1 mps 740 mmHg 45%
17:00 +22°C° 0 mm 1 mps 740 mmHg 49%
18:00 +21°C° 0 mm 1 mps 740 mmHg 55%
19:00 +19°C° 0 mm 1 mps 740 mmHg 60%
20:00 +16°C° 0 mm 1 mps 740 mmHg 66%
21:00 +15°C° 0 mm 1 mps 740 mmHg 69%
22:00 +14°C° 0 mm 1 mps 740 mmHg 71%
23:00 +13°C° 0 mm 1 mps 741 mmHg 74%

5 August, Thursday

Time Temperature Precipitation Wind Pressure Humidity
00:00 +13°C° 0 mm 1 mps 741 mmHg 75%
01:00 +13°C° 0 mm 1 mps 741 mmHg 77%
02:00 +13°C° 0 mm 1 mps 740 mmHg 78%
03:00 +13°C° 0 mm 1 mps 741 mmHg 80%
04:00 +13°C° 0 mm 1 mps 741 mmHg 82%
05:00 +13°C° 0 mm 1 mps 741 mmHg 85%
06:00 +15°C° 0 mm 2 mps 741 mmHg 78%
07:00 +17°C° 0 mm 2 mps 741 mmHg 72%
08:00 +18°C° 0 mm 2 mps 740 mmHg 66%
09:00 +18°C° 0.2 mm 2 mps 740 mmHg 70%
10:00 +18°C° 0.2 mm 3 mps 740 mmHg 74%
11:00 +18°C° 0.2 mm 3 mps 740 mmHg 78%
12:00 +17°C° 1.1 mm 3 mps 740 mmHg 84%
13:00 +16°C° 1.1 mm 2 mps 740 mmHg 90%
14:00 +15°C° 1.1 mm 2 mps 740 mmHg 96%
15:00 +15°C° 0.8 mm 2 mps 740 mmHg 96%
16:00 +13°C° 0.8 mm 3 mps 739 mmHg 97%
17:00 +13°C° 0.8 mm 3 mps 739 mmHg 97%
18:00 +13°C° 0.3 mm 3 mps 739 mmHg 97%
19:00 +13°C° 0.3 mm 3 mps 738 mmHg 98%
20:00 +13°C° 0.3 mm 3 mps 738 mmHg 98%
21:00 +14°C° 0 mm 3 mps 738 mmHg 98%
22:00 +14°C° 0 mm 3 mps 737 mmHg 98%
23:00 +14°C° 0 mm 3 mps 737 mmHg 98%

6 August, Friday

Time Temperature Precipitation Wind Pressure Humidity
00:00 +14°C° 0 mm 3 mps 737 mmHg 98%
01:00 +14°C° 0 mm 3 mps 736 mmHg 98%
02:00 +14°C° 0 mm 3 mps 736 mmHg 98%
03:00 +14°C° 0 mm 4 mps 736 mmHg 98%
04:00 +14°C° 0 mm 4 mps 735 mmHg 97%
05:00 +15°C° 0 mm 4 mps 735 mmHg 97%
06:00 +15°C° 0.9 mm 4 mps 734 mmHg 97%
07:00 +15°C° 0.9 mm 5 mps 734 mmHg 97%
08:00 +15°C° 0.9 mm 5 mps 733 mmHg 98%
09:00 +16°C° 0.1 mm 5 mps 733 mmHg 94%
10:00 +17°C° 0.1 mm 5 mps 732 mmHg 90%
11:00 +19°C° 0.1 mm 6 mps 732 mmHg 86%
12:00 +20°C° 0.1 mm 6 mps 732 mmHg 81%
13:00 +22°C° 0.1 mm 6 mps 731 mmHg 75%
14:00 +23°C° 0.1 mm 5 mps 731 mmHg 69%
15:00 +22°C° 0.6 mm 5 mps 731 mmHg 74%
16:00 +22°C° 0.6 mm 5 mps 731 mmHg 78%
17:00 +21°C° 0.6 mm 5 mps 731 mmHg 83%
18:00 +20°C° 1.3 mm 4 mps 731 mmHg 88%
19:00 +19°C° 1.3 mm 4 mps 731 mmHg 92%
20:00 +18°C° 1.3 mm 3 mps 731 mmHg 97%
21:00 +17°C° 0.2 mm 2 mps 732 mmHg 97%
22:00 +17°C° 0.2 mm 2 mps 732 mmHg 98%
23:00 +16°C° 0.2 mm 2 mps 732 mmHg 98%
Show more

We Need Your Consent

Meteoprog and our Service Providers may store and access personal data such as cookies, device identifiers or other similar technologies on your device and process such data to personalise content and ads, as well as provide social media features and to analyse the traffic.

  • Store and/or access information on your device

    Cookies, device identifiers or other information can be stored or accessed on your device for the purposes indicated above.

  • Personalised ads and content, ad and content measurement, audience insights, and products development

    Ads and content can be personalised based on a profile. More data can be added to better personalise ads and content. Ad and content performance can be measured. Insights about the audience who saw the ads and content can be derived. Such data can be used to develop or improve user’s experience, systems and software.

By clicking ‘I Agree’ you will allow the use of indicated cookies, device identifiers, web beacons or other similar technologies. Your settings can be changed in the browser on your device.

For certain purposes, legitimate interests may be relied on, rather than consent. You can read more about this in our Privacy and Cookie Policy.